This is the latest recevied weather packets stored in our database for station/object N3TJJ-11. If no packets are shown the sender has not sent any weather packets the latest 1 day(s).
| Time | Temp. | Humidity | Pressure | Rain* | Wind** | Luminosity | Snow |
|---|---|---|---|---|---|---|---|
| 1778018024 | 25° C | 44% | 1006.6 hPa | 0 mm | 3.13 m/s, 178° | - | - |
| 1778017663 | 25° C | 43% | 1006.6 hPa | 0 mm | 3.58 m/s, 199° | - | - |
| 1778017424 | 25° C | 42% | 1006.6 hPa | 0 mm | 3.58 m/s, 214° | - | - |
| 1778016943 | 25° C | 42% | 1006.6 hPa | 0 mm | 3.58 m/s, 223° | - | - |
| 1778016825 | 25° C | 43% | 1006.5 hPa | 0 mm | 3.58 m/s, 173° | - | - |
| 1778016223 | 25° C | 41% | 1006.5 hPa | 0 mm | 3.58 m/s, 238° | - | - |
| 1778015626 | 25° C | 42% | 1006.3 hPa | 0 mm | 4.02 m/s, 263° | - | - |
| 1778015503 | 25° C | 42% | 1006.3 hPa | 0 mm | 4.47 m/s, 244° | - | - |
| 1778015025 | 25° C | 41% | 1006.5 hPa | 0 mm | 4.47 m/s, 230° | - | - |
| 1778014783 | 25.56° C | 41% | 1006.4 hPa | 0 mm | 4.02 m/s, 229° | - | - |
| 1778014424 | 25.56° C | 40% | 1006.4 hPa | 0 mm | 4.02 m/s, 244° | - | - |
| 1778014063 | 25.56° C | 40% | 1006.4 hPa | 0 mm | 3.58 m/s, 204° | - | - |
| 1778013824 | 25° C | 41% | 1006.4 hPa | 0 mm | 4.47 m/s, 246° | - | - |
| 1778013343 | 25.56° C | 40% | 1006.4 hPa | 0 mm | 4.02 m/s, 236° | - | - |
| 1778013227 | 25.56° C | 38% | 1006.4 hPa | 0 mm | 4.47 m/s, 209° | - | - |
| 1778012623 | 25.56° C | 36% | 1006.5 hPa | 0 mm | 5.36 m/s, 235° | - | - |
| 1778012024 | 25.56° C | 41% | 1006.6 hPa | 0 mm | 3.58 m/s, 182° | - | - |
| 1778011903 | 25.56° C | 40% | 1006.6 hPa | 0 mm | 3.58 m/s, 242° | - | - |
| 1778011425 | 25.56° C | 42% | 1006.6 hPa | 0 mm | 4.02 m/s, 233° | - | - |
| 1778011183 | 25° C | 43% | 1006.6 hPa | 0 mm | 4.47 m/s, 234° | - | - |
| 1778010824 | 25° C | 42% | 1006.6 hPa | 0 mm | 4.02 m/s, 235° | - | - |
| 1778010463 | 25° C | 42% | 1006.7 hPa | 0 mm | 4.47 m/s, 136° | - | - |
| 1778010224 | 25° C | 42% | 1006.7 hPa | 0 mm | 4.47 m/s, 188° | - | - |
| 1778009743 | 25° C | 44% | 1006.7 hPa | 0 mm | 4.47 m/s, 207° | - | - |
| 1778009625 | 25° C | 44% | 1006.6 hPa | 0 mm | 4.47 m/s, 215° | - | - |
* Rain latest hour (hover to see other rain measurements)
** Current wind speed in m/s (hover to see current wind gust speed)